CDT,Max TemperatureF,Mean TemperatureF,Min TemperatureF,Max Dew PointF,MeanDew PointF,Min DewpointF,Max Humidity, Mean Humidity, Min Humidity, Max Sea Level PressureIn, Mean Sea Level PressureIn, Min Sea Level PressureIn, Max VisibilityMiles, Mean VisibilityMiles, Min VisibilityMiles, Max Wind SpeedMPH, Mean Wind SpeedMPH, Max Gust SpeedMPH,PrecipitationIn, CloudCover, Events, WindDirDegrees
2011-10-1,63,50,38,38,35,32,87,58,31,30.33,30.26,30.15,10,10,10,16,9,20,0.00,0,,142
2011-10-2,81,64,46,44,37,34,68,43,20,30.17,30.12,30.08,10,10,10,12,7,17,0.00,0,,163
2011-10-3,79,61,43,44,38,33,89,48,18,30.18,30.14,30.11,10,10,10,13,5,23,0.00,0,,149
2011-10-4,81,64,47,44,40,36,76,41,23,30.14,30.08,30.00,10,10,10,16,7,23,0.00,0,,139
2011-10-5,84,71,58,49,45,39,69,44,20,30.05,30.01,29.97,10,10,10,17,8,25,0.00,0,,138
2011-10-6,79,67,55,45,42,36,63,43,21,30.04,30.00,29.92,10,10,10,20,10,32,0.00,0,,135
2011-10-7,80,72,65,58,51,46,53,47,39,29.93,29.84,29.76,10,10,7,26,16,39,0.00,3,,157
2011-10-8,72,66,61,63,60,55,97,81,62,30.13,30.00,29.86,10,10,7,12,7,17,0.10,7,Rain,228
2011-10-9,78,68,57,60,56,50,99,78,38,30.21,30.17,30.09,10,9,5,12,5,17,0.18,5,Rain,73
2011-10-10,64,60,57,59,53,50,92,77,61,30.08,29.98,29.89,10,10,3,14,8,22,0.14,2,Rain,149
2011-10-11,72,62,51,54,50,44,91,69,36,29.88,29.82,29.77,10,10,10,14,9,22,0.00,1,,149
2011-10-12,62,60,57,57,54,51,94,85,66,29.76,29.73,29.68,10,10,7,10,6,18,0.19,7,Rain-Thunderstorm,173
2011-10-13,59,52,46,52,44,38,99,76,47,29.70,29.68,29.66,10,10,7,20,8,28,0.00,3,Rain,290
2011-10-14,55,49,43,44,40,36,96,76,50,29.82,29.75,29.67,10,10,7,25,12,33,0.00,4,,290
2011-10-15,56,46,37,39,37,34,93,69,44,29.90,29.86,29.82,10,10,10,20,13,26,0.00,2,Rain,274
2011-10-16,53,45,37,40,34,27,96,68,37,29.89,29.87,29.84,10,10,5,28,12,36,0.00,1,,272
2011-10-17,54,44,33,33,30,25,90,60,32,29.89,29.88,29.86,10,10,10,23,13,33,0.00,0,,279
2011-10-18,46,40,33,34,29,23,87,67,43,30.10,30.01,29.92,10,10,10,16,7,24,0.00,4,,323
2011-10-19,44,37,30,32,29,24,80,71,56,30.16,30.12,30.09,10,10,10,12,6,16,0.00,6,,346
2011-10-20,51,40,28,34,30,27,95,75,45,30.08,30.03,29.97,10,10,10,14,5,20,0.00,0,,337
2011-10-21,61,42,22,37,30,22,97,69,34,30.03,29.99,29.95,10,10,10,12,3,18,0.00,0,,231
2011-10-22,58,43,28,40,34,28,99,71,41,30.14,30.07,29.96,10,9,2,8,4,,0.00,0,,196
2011-10-23,55,44,34,45,41,32,95,81,55,29.94,29.85,29.80,10,10,7,12,6,17,0.00,3,Rain-Thunderstorm,247
2011-10-24,58,44,30,43,37,30,99,79,49,30.01,29.98,29.94,10,10,7,8,4,,0.00,3,,249
2011-10-25,51,46,41,39,35,30,87,66,45,30.06,29.95,29.89,10,10,10,18,10,28,0.00,4,,37
2011-10-26,45,38,32,39,36,31,97,90,66,30.13,30.08,30.05,10,9,2,6,1,,0.03,6,Rain,307
2011-10-27,48,36,25,36,29,22,100,79,36,30.07,30.05,30.02,10,9,2,12,4,,0.00,3,,272
2011-10-28,50,40,30,33,26,22,85,58,33,30.06,30.03,30.00,10,10,10,20,8,25,0.00,2,,264
2011-10-29,50,35,20,32,23,19,96,64,30,30.04,29.99,29.89,10,10,10,12,5,,0.00,1,,175
2011-10-30,45,42,37,38,33,23,95,75,42,29.95,29.84,29.77,10,8,2,17,9,22,0.00,8,Rain,279
2011-10-31,51,38,25,40,30,25,100,80,43,30.01,29.96,29.86,10,6,0,12,5,17,0.00,3,Fog,199